K7FED Weather Reports


time (UTC)temp
C
wind
direction
speed
KPH
gust
KPH
rain 1hr
cm
rain 24hr
cm
rain mn
cm
humidity
%
barometer
mb
20260506135254 12 0 0.0 0.0 0.00 0.00 0.00 87 1018.3
20260506134753 12 0 0.0 1.6 0.00 0.00 0.00 87 1018.3
20260506134253 12 0 0.0 1.6 0.00 0.00 0.00 88 1018.2
20260506133739 12 0 0.0 1.6 0.00 0.00 0.00 88 1018.2
20260506133239 12 82 0.0 1.6 0.00 0.00 0.00 88 1018.2
20260506132739 12 0 0.0 1.6 0.00 0.00 0.00 88 1018.2
20260506132239 12 0 0.0 1.6 0.00 0.00 0.00 88 1018.2
20260506131739 12 161 0.0 1.6 0.00 0.00 0.00 88 1018.1
20260506131239 12 0 0.0 1.6 0.00 0.00 0.00 88 1018.1
20260506130739 12 0 0.0 3.2 0.00 0.00 0.00 88 1018.0
20260506130239 12 0 1.6 3.2 0.00 0.00 0.00 88 1018.0
20260506125740 12 96 1.6 3.2 0.00 0.00 0.00 87 1018.0
20260506125240 13 112 1.6 3.2 0.00 0.00 0.00 86 1018.0
20260506124739 13 99 1.6 3.2 0.00 0.00 0.00 85 1018.0
20260506124239 13 0 0.0 1.6 0.00 0.00 0.00 84 1017.9
20260506123740 13 0 0.0 1.6 0.00 0.00 0.00 84 1017.9
20260506123240 13 0 0.0 1.6 0.00 0.00 0.00 84 1017.9
20260506122739 13 0 0.0 1.6 0.00 0.00 0.00 84 1017.9
20260506122241 13 0 0.0 1.6 0.00 0.00 0.00 84 1017.9
20260506121740 13 0 0.0 3.2 0.00 0.00 0.00 84 1017.8
20260506121227 13 0 0.0 3.2 0.00 0.00 0.00 84 1017.8
20260506120726 13 0 0.0 3.2 0.00 0.00 0.00 84 1017.7
20260506120226 13 14 0.0 3.2 0.00 0.00 0.00 85 1017.7
20260506115727 13 23 0.0 3.2 0.00 0.00 0.00 85 1017.7
20260506115226 13 14 0.0 1.6 0.00 0.00 0.00 85 1017.7
20260506114727 12 4 0.0 3.2 0.00 0.00 0.00 86 1017.6
20260506114227 12 0 0.0 3.2 0.00 0.00 0.00 86 1017.6
20260506113726 12 0 0.0 1.6 0.00 0.00 0.00 86 1017.5
20260506113226 12 20 0.0 1.6 0.00 0.00 0.00 86 1017.5
20260506112725 12 12 0.0 1.6 0.00 0.00 0.00 86 1017.5
20260506112225 12 321 0.0 1.6 0.00 0.00 0.00 86 1017.4
20260506111725 12 0 0.0 0.0 0.00 0.00 0.00 86 1017.4
20260506111226 12 0 0.0 1.6 0.00 0.00 0.00 86 1017.3
20260506110711 12 342 0.0 3.2 0.00 0.00 0.00 86 1017.3
20260506110210 12 0 0.0 3.2 0.00 0.00 0.00 86 1017.2
20260506105711 12 5 0.0 1.6 0.00 0.00 0.00 86 1017.2
20260506105211 12 0 0.0 3.2 0.00 0.00 0.00 86 1017.1
20260506104710 12 0 0.0 3.2 0.00 0.00 0.00 87 1017.2
20260506104156 12 28 0.0 1.6 0.00 0.00 0.00 87 1017.1
20260506103656 12 0 0.0 1.6 0.00 0.00 0.00 88 1017.1
20260506103156 12 0 0.0 3.2 0.00 0.00 0.00 87 1017.1
20260506102656 12 0 0.0 3.2 0.00 0.00 0.00 87 1017.1
20260506102156 12 267 0.0 3.2 0.00 0.00 0.00 87 1017.0
20260506101656 12 0 0.0 1.6 0.00 0.00 0.00 87 1017.0
20260506101156 12 0 0.0 1.6 0.00 0.00 0.00 87 1017.0
20260506100656 12 0 0.0 1.6 0.00 0.00 0.00 87 1016.9
20260506100157 12 27 0.0 1.6 0.00 0.00 0.00 86 1016.8
20260506095656 12 0 0.0 0.0 0.00 0.00 0.00 86 1016.8
20260506095156 13 0 0.0 0.0 0.00 0.00 0.00 85 1016.7
20260506094657 13 0 0.0 0.0 0.00 0.00 0.00 85 1016.7
20260506094142 13 44 0.0 0.0 0.00 0.00 0.00 85 1016.7
20260506093642 13 0 0.0 0.0 0.00 0.00 0.00 84 1016.6
20260506093142 13 0 0.0 0.0 0.00 0.00 0.00 84 1016.6
20260506092641 13 0 0.0 0.0 0.00 0.00 0.00 84 1016.7
20260506092142 13 0 0.0 0.0 0.00 0.00 0.00 84 1016.7
20260506091627 13 0 0.0 1.6 0.00 0.00 0.00 83 1016.7
20260506091128 13 0 0.0 1.6 0.00 0.00 0.00 83 1016.7
20260506090628 13 0 0.0 1.6 0.00 0.00 0.00 81 1016.8
20260506090128 14 0 0.0 1.6 0.00 0.00 0.00 81 1016.7
20260506085629 14 0 0.0 0.0 0.00 0.00 0.00 80 1016.8
20260506085129 14 0 0.0 1.6 0.00 0.00 0.00 81 1016.8
20260506084629 14 0 0.0 1.6 0.00 0.00 0.00 81 1016.9
20260506084129 14 44 0.0 3.2 0.00 0.00 0.00 81 1016.9
20260506083627 14 0 0.0 3.2 0.00 0.00 0.00 81 1017.0
20260506083113 14 42 0.0 3.2 0.00 0.00 0.00 81 1017.1
20260506082612 14 0 0.0 3.2 0.00 0.00 0.00 81 1017.1
20260506082058 14 38 0.0 3.2 0.00 0.00 0.00 81 1017.1
20260506081558 14 0 0.0 3.2 0.00 0.00 0.00 81 1017.1
20260506081058 14 0 0.0 3.2 0.00 0.00 0.00 81 1017.0
20260506080543 14 356 0.0 3.2 0.00 0.00 0.00 81 1017.0
20260506073029 14 0 1.6 3.2 0.00 0.00 0.00 80 1016.7
20260506072529 14 357 1.6 3.2 0.00 0.00 0.00 80 1016.7
20260506072029 14 344 3.2 6.4 0.00 0.00 0.00 81 1016.6
20260506071530 14 333 3.2 6.4 0.00 0.00 0.00 80 1016.6
20260506071028 14 319 1.6 4.8 0.00 0.00 0.00 80 1016.5
20260506070528 14 322 1.6 4.8 0.00 0.00 0.00 80 1016.5
20260506062430 14 358 1.6 3.2 0.00 0.00 0.00 80 1016.1
20260506061930 14 19 1.6 4.8 0.00 0.00 0.00 80 1016.0
20260506061431 14 5 1.6 4.8 0.00 0.00 0.00 80 1016.0
20260506060930 14 289 0.0 1.6 0.00 0.00 0.00 80 1015.9
20260506060430 14 0 0.0 1.6 0.00 0.00 0.00 79 1015.9
20260506050928 15 275 1.6 3.2 0.00 0.00 0.00 76 1015.5
20260506050428 15 312 0.0 3.2 0.00 0.00 0.00 75 1015.4
20260506044900 15 0 0.0 3.2 0.00 0.00 0.00 73 1015.4
20260506044400 16 318 0.0 1.6 0.00 0.00 0.00 72 1015.3
20260506043900 16 323 0.0 3.2 0.00 0.00 0.00 72 1015.2
20260506043400 16 0 1.6 3.2 0.00 0.00 0.00 71 1015.1
20260506042901 16 337 1.6 3.2 0.00 0.00 0.00 71 1015.0
20260506042400 16 335 0.0 3.2 0.00 0.00 0.00 70 1014.9
20260506041900 16 0 0.0 3.2 0.00 0.00 0.00 70 1014.8
20260506041400 16 0 1.6 4.8 0.00 0.00 0.00 69 1014.8
20260506040901 16 182 1.6 4.8 0.00 0.00 0.00 69 1014.7
20260506040345 16 208 1.6 4.8 0.00 0.00 0.00 69 1014.7
20260506035846 16 0 0.0 3.2 0.00 0.00 0.00 69 1014.7
20260506035345 16 0 0.0 3.2 0.00 0.00 0.00 69 1014.7
20260506034845 16 0 0.0 3.2 0.00 0.00 0.00 70 1014.6
20260506034346 16 315 1.6 3.2 0.00 0.00 0.00 69 1014.6
20260506033846 16 279 1.6 4.8 0.00 0.00 0.00 69 1014.6
20260506033347 16 265 3.2 4.8 0.00 0.00 0.00 69 1014.5
20260506032833 16 266 3.2 4.8 0.00 0.00 0.00 69 1014.5
20260506032333 16 319 3.2 8.0 0.00 0.00 0.00 69 1014.5
20260506031832 17 346 3.2 8.0 0.00 0.00 0.00 68 1014.4
20260506031332 17 307 1.6 4.8 0.00 0.00 0.00 68 1014.4
20260506030832 17 0 1.6 4.8 0.00 0.00 0.00 68 1014.3
20260506030333 17 342 1.6 4.8 0.00 0.00 0.00 68 1014.3
20260506025832 17 333 1.6 3.2 0.00 0.00 0.00 68 1014.3
20260506025332 17 0 1.6 4.8 0.00 0.00 0.00 68 1014.1
20260506024831 17 333 1.6 4.8 0.00 0.00 0.00 68 1014.1
20260506024332 17 248 1.6 3.2 0.00 0.00 0.00 68 1014.1
20260506023832 17 155 3.2 8.0 0.00 0.00 0.00 68 1014.0
20260506023330 17 329 3.2 8.0 0.00 0.00 0.00 68 1014.1
20260506022830 17 173 3.2 8.0 0.00 0.00 0.00 68 1014.0
20260506022330 17 326 3.2 11.3 0.00 0.00 0.00 68 1013.9
20260506021830 17 32 3.2 11.3 0.00 0.00 0.00 68 1013.9
20260506021330 17 348 3.2 9.7 0.00 0.00 0.00 67 1013.9
20260506020832 17 300 1.6 6.4 0.00 0.00 0.00 66 1013.9
20260506020331 17 164 3.2 6.4 0.00 0.00 0.00 66 1013.8
20260506015817 17 326 3.2 6.4 0.00 0.00 0.00 65 1013.8
20260506015317 17 352 3.2 6.4 0.00 0.00 0.00 65 1013.8
20260506014817 17 317 3.2 8.0 0.00 0.00 0.00 66 1013.8
20260506014307 17 0 3.2 8.0 0.00 0.00 0.00 66 1013.8
20260506013803 17 347 3.2 6.4 0.00 0.00 0.00 65 1013.8
20260506013304 17 204 1.6 4.8 0.00 0.00 0.00 65 1013.8
20260506012804 17 322 3.2 6.4 0.00 0.00 0.00 66 1013.8
20260506012307 17 322 3.2 9.7 0.00 0.00 0.00 66 1013.8
20260506011802 17 11 3.2 9.7 0.00 0.00 0.00 65 1013.8
20260506011301 17 329 3.2 8.0 0.00 0.00 0.00 66 1013.9
20260506010802 17 337 4.8 8.0 0.00 0.00 0.00 66 1013.9
20260506010301 17 341 3.2 8.0 0.00 0.00 0.00 66 1013.9
20260506005803 17 317 3.2 9.7 0.00 0.00 0.00 65 1013.9
20260506005251 17 0 6.4 12.9 0.00 0.00 0.00 66 1014.0
20260506004751 18 318 6.4 12.9 0.00 0.00 0.00 65 1013.9
20260506004251 18 342 4.8 11.3 0.00 0.00 0.00 65 1013.9
20260506003751 18 341 4.8 8.0 0.00 0.00 0.00 65 1013.8
20260506003247 18 349 3.2 6.4 0.00 0.00 0.00 65 1013.8
20260506002747 18 184 3.2 9.7 0.00 0.00 0.00 64 1013.8
20260506002233 18 310 3.2 9.7 0.00 0.00 0.00 65 1013.7
20260506001732 18 0 3.2 9.7 0.00 0.00 0.00 64 1013.7
20260506001231 18 329 3.2 9.7 0.00 0.00 0.00 64 1013.7
20260506000731 18 0 4.8 11.3 0.00 0.00 0.00 63 1013.6
20260506000231 18 359 4.8 11.3 0.00 0.00 0.00 63 1013.6
20260505235731 18 336 3.2 9.7 0.00 0.00 0.00 63 1013.6
20260505235232 18 0 3.2 8.0 0.00 0.00 0.00 63 1013.6
20260505234733 18 306 3.2 8.0 0.00 0.00 0.00 64 1013.5
20260505234233 18 321 3.2 8.0 0.00 0.00 0.00 64 1013.6
20260505233731 18 330 3.2 8.0 0.00 0.00 0.00 65 1013.6
20260505233232 17 191 3.2 8.0 0.00 0.00 0.00 65 1013.6
20260505232732 17 348 3.2 8.0 0.00 0.00 0.00 66 1013.7
20260505232231 17 241 1.6 4.8 0.00 0.00 0.00 67 1013.7
20260505231732 17 50 1.6 6.4 0.00 0.00 0.00 67 1013.7
20260505231231 17 169 3.2 9.7 0.00 0.00 0.00 67 1013.8
20260505230722 17 37 3.2 9.7 0.00 0.00 0.00 67 1013.8
20260505230218 17 321 3.2 9.7 0.00 0.00 0.00 68 1013.9
20260505225718 17 319 3.2 6.4 0.00 0.00 0.00 68 1013.9
20260505225218 17 0 1.6 4.8 0.00 0.00 0.00 68 1013.9
20260505224718 17 342 1.6 4.8 0.00 0.00 0.00 68 1013.9
20260505224219 17 305 1.6 6.4 0.00 0.00 0.00 68 1013.9
20260505223718 17 359 3.2 6.4 0.00 0.00 0.00 69 1013.9
20260505223219 17 322 3.2 11.3 0.00 0.00 0.00 69 1014.0
20260505222709 17 0 3.2 11.3 0.00 0.00 0.00 69 1014.0
20260505222203 17 323 3.2 8.0 0.00 0.00 0.00 70 1014.0
20260505221652 17 321 3.2 8.0 0.00 0.00 0.00 70 1014.1
20260505221149 17 318 3.2 8.0 0.00 0.00 0.00 69 1014.1
20260505220649 17 290 3.2 8.0 0.00 0.00 0.00 69 1014.1
20260505220149 17 300 3.2 8.0 0.00 0.00 0.00 70 1014.1
20260505215649 17 324 3.2 8.0 0.00 0.00 0.00 70 1014.1
20260505215149 17 334 3.2 8.0 0.00 0.00 0.00 70 1014.2
20260505214649 17 252 3.2 8.0 0.00 0.00 0.00 69 1014.2
20260505214133 17 198 3.2 9.7 0.00 0.00 0.00 71 1014.2
20260505213635 17 20 3.2 9.7 0.00 0.00 0.00 71 1014.2
20260505213134 17 4 3.2 9.7 0.00 0.00 0.00 71 1014.2
20260505212634 17 350 3.2 9.7 0.00 0.00 0.00 71 1014.3
20260505212135 17 320 3.2 9.7 0.00 0.00 0.00 71 1014.2
20260505211636 16 339 4.8 11.3 0.00 0.00 0.00 72 1014.2
20260505211135 16 309 4.8 11.3 0.00 0.00 0.00 71 1014.2
20260505210636 16 328 4.8 11.3 0.00 0.00 0.00 71 1014.2
20260505210136 16 311 4.8 9.7 0.00 0.00 0.00 72 1014.2
20260505205636 16 343 3.2 6.4 0.00 0.00 0.00 71 1014.2
20260505205135 16 1 3.2 9.7 0.00 0.00 0.00 72 1014.4
20260505204635 16 319 3.2 9.7 0.00 0.00 0.00 72 1014.4
20260505204133 16 351 3.2 9.7 0.00 0.00 0.00 72 1014.4
20260505203633 16 6 3.2 9.7 0.00 0.00 0.00 72 1014.4
20260505203134 16 344 3.2 6.4 0.00 0.00 0.00 73 1014.4
20260505202635 16 345 3.2 6.4 0.00 0.00 0.00 74 1014.4
20260505202134 16 317 3.2 6.4 0.00 0.00 0.00 73 1014.4
20260505201634 16 14 3.2 6.4 0.00 0.00 0.00 73 1014.5
20260505201134 16 271 3.2 6.4 0.00 0.00 0.00 73 1014.5
20260505200635 16 67 3.2 6.4 0.00 0.00 0.00 73 1014.5
20260505200135 16 321 3.2 4.8 0.00 0.00 0.00 74 1014.5
20260505195635 16 320 3.2 6.4 0.00 0.00 0.00 74 1014.6
20260505195133 16 321 3.2 8.0 0.00 0.00 0.00 74 1014.6
20260505194634 16 343 3.2 8.0 0.00 0.00 0.00 74 1014.6
20260505194133 16 327 3.2 6.4 0.00 0.00 0.00 74 1014.6
20260505193634 16 320 3.2 8.0 0.00 0.00 0.00 75 1014.6
20260505193124 16 340 3.2 11.3 0.00 0.00 0.00 75 1014.6
20260505192624 16 326 4.8 11.3 0.00 0.00 0.00 75 1014.5
20260505192123 16 52 4.8 11.3 0.00 0.00 0.00 74 1014.5
20260505191624 16 316 4.8 11.3 0.00 0.00 0.00 74 1014.5
20260505191120 16 350 3.2 8.0 0.00 0.00 0.00 73 1014.5
20260505190621 16 326 3.2 14.5 0.00 0.00 0.00 74 1014.5
20260505190111 16 352 4.8 14.5 0.00 0.00 0.00 74 1014.5
20260505185611 16 358 4.8 9.7 0.00 0.00 0.00 75 1014.4
20260505185106 15 310 4.8 9.7 0.00 0.00 0.00 75 1014.3
20260505184605 15 277 4.8 9.7 0.00 0.00 0.00 75 1014.3
20260505184105 15 317 3.2 9.7 0.00 0.00 0.00 76 1014.3
20260505183607 15 345 3.2 8.0 0.00 0.00 0.00 77 1014.3
20260505183106 15 195 4.8 16.1 0.00 0.00 0.00 78 1014.3
20260505182600 15 323 4.8 16.1 0.00 0.00 0.00 79 1014.3
20260505182100 15 342 4.8 9.7 0.00 0.00 0.00 79 1014.3
20260505181600 15 176 3.2 11.3 0.00 0.00 0.00 79 1014.3
20260505181054 15 341 3.2 11.3 0.00 0.00 0.00 79 1014.3
20260505180551 15 348 3.2 8.0 0.00 0.00 0.00 79 1014.3
20260505180042 15 186 3.2 8.0 0.00 0.00 0.00 81 1014.3
20260505175536 14 343 3.2 6.4 0.00 0.00 0.00 82 1014.3
20260505175038 14 285 3.2 6.4 0.00 0.00 0.00 82 1014.3
20260505174538 14 356 3.2 6.4 0.00 0.00 0.00 82 1014.3
20260505174037 14 310 3.2 8.0 0.00 0.00 0.00 81 1014.3
20260505173537 14 337 3.2 8.0 0.00 0.00 0.00 80 1014.2
20260505173038 14 180 1.6 6.4 0.00 0.00 0.00 80 1014.2
20260505172538 14 33 1.6 6.4 0.00 0.00 0.00 81 1014.2
20260505172037 14 1 1.6 6.4 0.00 0.00 0.00 80 1014.1
20260505171535 14 334 3.2 8.0 0.00 0.00 0.00 80 1014.1
20260505171035 14 316 3.2 9.7 0.00 0.00 0.00 80 1014.2
20260505170524 14 320 3.2 9.7 0.00 0.00 0.00 80 1014.2
20260505170026 14 222 3.2 8.0 0.00 0.00 0.00 80 1014.1
20260505165522 14 355 3.2 9.7 0.00 0.00 0.00 79 1014.0
20260505165012 14 344 3.2 9.7 0.00 0.00 0.00 79 1014.0
20260505164514 14 326 3.2 9.7 0.00 0.00 0.00 78 1014.0
20260505164006 14 336 3.2 9.7 0.00 0.00 0.00 79 1014.0
20260505163454 14 212 4.8 9.7 0.00 0.00 0.00 79 1014.0
20260505162955 14 339 4.8 9.7 0.00 0.00 0.00 78 1014.0
20260505162452 14 5 3.2 6.4 0.00 0.00 0.00 79 1014.0
20260505161952 13 332 1.6 4.8 0.00 0.00 0.00 79 1014.1
20260505161452 13 336 1.6 4.8 0.00 0.00 0.00 79 1014.0
20260505160952 13 216 3.2 6.4 0.00 0.00 0.00 79 1014.0
20260505160437 13 333 3.2 6.4 0.00 0.00 0.00 79 1014.0
20260505152938 13 303 1.6 6.4 0.00 0.00 0.00 81 1013.9
20260505152439 13 359 3.2 6.4 0.00 0.00 0.00 81 1013.8
20260505151937 13 0 1.6 6.4 0.00 0.00 0.00 81 1013.7
20260505151437 13 349 1.6 4.8 0.00 0.00 0.00 81 1013.7
20260505150937 13 0 1.6 3.2 0.00 0.00 0.00 81 1013.7
20260505150437 13 337 1.6 3.2 0.00 0.00 0.00 81 1013.6
20260505140353 12 0 1.6 4.8 0.00 0.00 0.00 85 1013.2